SWR19C KEWR-LSZH

Flight info

Callsign SWR19C
Flight time N/A
Altitude 39000
Route MERIT DCT HFD DCT PUT DCT BOS DCT KANNI N257B NICSO/M085F390 DCT 48N050W 50N040W 51N030W 51N020W DCT DINIM DCT ELSOX DCT GAPLI/N0480F390 DCT LIZAD DCT JSY DCT ARSUK DCT RESMI DCT TEPRI DCT POGZI DCT GELTA DCT MANAG DCT PEVIT DCT BLM
Aircraft A359/H-SDE2E3GHIJ3J4J5LM1ORWXY/LB1D1

Departure

Time 2026-04-22 21:35
Airport Newark Liberty International Airport (KEWR)

Arrival

Time N/A
Airport Zürich Airport (LSZH)
Time Latitude Longitude Altitude Speed Heading
2026-04-22 20:59 40.69234 -74.17516 36 ft 0 kts 147°
2026-04-22 21:23 40.69239 -74.17521 28 ft 4 kts 149°
2026-04-22 21:23 40.69264 -74.17534 26 ft 4 kts 176°
2026-04-22 21:24 40.69289 -74.17529 26 ft 4 kts 209°
2026-04-22 21:24 40.69308 -74.17512 26 ft 4 kts 219°
2026-04-22 21:24 40.69326 -74.17488 28 ft 4 kts 242°
2026-04-22 21:24 40.69332 -74.17456 28 ft 4 kts 279°
2026-04-22 21:25 40.69323 -74.17423 25 ft 4 kts 297°
2026-04-22 21:25 40.69315 -74.17398 26 ft 4 kts 284°
2026-04-22 21:25 40.69314 -74.17367 26 ft 4 kts 232°
2026-04-22 21:25 40.69325 -74.17358 26 ft 4 kts 133°
2026-04-22 21:26 40.69333 -74.17380 24 ft 4 kts 106°
2026-04-22 21:26 40.69339 -74.17407 26 ft 0 kts 106°
2026-04-22 21:29 40.69337 -74.17400 26 ft 3 kts 106°
2026-04-22 21:29 40.69322 -74.17345 27 ft 10 kts 112°
2026-04-22 21:29 40.69283 -74.17251 28 ft 13 kts 122°
2026-04-22 21:29 40.69237 -74.17141 28 ft 14 kts 116°
2026-04-22 21:30 40.69194 -74.17067 28 ft 9 kts 161°
2026-04-22 21:30 40.69130 -74.17094 28 ft 13 kts 206°
2026-04-22 21:30 40.69026 -74.17160 27 ft 19 kts 205°
2026-04-22 21:30 40.68904 -74.17237 29 ft 20 kts 205°
2026-04-22 21:31 40.68774 -74.17319 29 ft 21 kts 206°
2026-04-22 21:31 40.68639 -74.17405 29 ft 22 kts 205°
2026-04-22 21:31 40.68495 -74.17496 29 ft 24 kts 206°
2026-04-22 21:31 40.68342 -74.17593 28 ft 25 kts 206°
2026-04-22 21:32 40.68181 -74.17696 28 ft 26 kts 206°
2026-04-22 21:32 40.68013 -74.17802 28 ft 27 kts 205°
2026-04-22 21:32 40.67842 -74.17911 29 ft 28 kts 206°
2026-04-22 21:32 40.67711 -74.17996 28 ft 19 kts 206°
2026-04-22 21:33 40.67626 -74.18047 28 ft 9 kts 194°
2026-04-22 21:33 40.67574 -74.18004 29 ft 10 kts 120°
2026-04-22 21:33 40.67577 -74.17925 29 ft 9 kts 50°
2026-04-22 21:33 40.67597 -74.17909 29 ft 0 kts 26°
2026-04-22 21:34 40.67671 -74.17862 28 ft 41 kts 26°
2026-04-22 21:34 40.68131 -74.17569 27 ft 104 kts 26°
2026-04-22 21:34 40.68950 -74.17046 30 ft 156 kts 26°
2026-04-22 21:35 40.69942 -74.16412 663 ft 150 kts 28°
2026-04-22 21:35 40.70852 -74.15706 1170 ft 161 kts 45°
2026-04-22 21:35 40.71616 -74.14484 1408 ft 185 kts 52°
2026-04-22 21:35 40.72671 -74.13339 1749 ft 206 kts 31°
2026-04-22 21:36 40.73990 -74.12392 2157 ft 227 kts 27°
2026-04-22 21:36 40.75438 -74.11384 2549 ft 247 kts 27°
2026-04-22 21:36 40.76976 -74.10278 3153 ft 257 kts 27°
2026-04-22 21:36 40.78548 -74.09091 3881 ft 261 kts 27°
2026-04-22 21:37 40.80001 -74.07608 4622 ft 267 kts 40°
2026-04-22 21:37 40.81319 -74.05853 5363 ft 270 kts 43°
2026-04-22 21:37 40.82573 -74.03987 6141 ft 273 kts 45°
2026-04-22 21:37 40.83794 -74.02050 6931 ft 275 kts 46°
2026-04-22 21:38 40.85015 -74.00062 7670 ft 280 kts 46°
2026-04-22 21:38 40.86252 -73.98037 8422 ft 285 kts 46°
2026-04-22 21:38 40.87495 -73.96010 9199 ft 290 kts 46°
2026-04-22 21:38 40.88780 -73.93930 9961 ft 294 kts 46°
2026-04-22 21:39 40.90103 -73.91800 10459 ft 308 kts 46°
2026-04-22 21:39 40.91513 -73.89552 10791 ft 327 kts 46°
2026-04-22 21:39 40.93009 -73.87169 11123 ft 346 kts 46°
2026-04-22 21:39 40.94588 -73.84649 11458 ft 364 kts 46°
2026-04-22 21:40 40.96229 -73.82019 11875 ft 376 kts 46°
2026-04-22 21:40 40.97908 -73.79313 12528 ft 382 kts 46°
2026-04-22 21:40 40.99600 -73.76580 13202 ft 386 kts 46°
2026-04-22 21:40 41.01312 -73.73811 13892 ft 391 kts 46°
2026-04-22 21:41 41.03044 -73.71011 14504 ft 395 kts 46°
2026-04-22 21:41 41.04794 -73.68182 15114 ft 399 kts 45°
2026-04-22 21:41 41.06539 -73.65362 15708 ft 403 kts 45°
2026-04-22 21:41 41.08327 -73.62472 16315 ft 407 kts 45°
2026-04-22 21:42 41.10131 -73.59553 16924 ft 410 kts 45°
2026-04-22 21:42 41.11949 -73.56609 17533 ft 414 kts 45°
2026-04-22 21:42 41.13782 -73.53638 18141 ft 418 kts 45°
2026-04-22 21:42 41.15632 -73.50636 18726 ft 422 kts 45°
2026-04-22 21:43 41.17504 -73.47595 19314 ft 425 kts 45°
2026-04-22 21:43 41.19380 -73.44544 19908 ft 428 kts 45°
2026-04-22 21:43 41.21268 -73.41469 20522 ft 431 kts 45°
2026-04-22 21:43 41.23148 -73.38404 21074 ft 435 kts 45°
2026-04-22 21:44 41.25064 -73.35280 21688 ft 438 kts 45°
2026-04-22 21:44 41.26997 -73.32123 22279 ft 441 kts 45°
2026-04-22 21:44 41.28938 -73.28952 22852 ft 444 kts 45°
2026-04-22 21:44 41.30898 -73.25747 23422 ft 448 kts 45°
2026-04-22 21:45 41.32873 -73.22512 23932 ft 451 kts 45°
2026-04-22 21:45 41.34857 -73.19260 24408 ft 455 kts 45°
2026-04-22 21:45 41.36858 -73.15964 24892 ft 459 kts 45°
2026-04-22 21:45 41.38703 -73.12442 25383 ft 466 kts 51°
2026-04-22 21:46 41.40410 -73.08813 25850 ft 470 kts 53°
2026-04-22 21:46 41.42107 -73.05064 26285 ft 475 kts 53°
2026-04-22 21:46 41.43790 -73.01258 26766 ft 478 kts 54°
2026-04-22 21:46 41.45471 -72.97418 27237 ft 481 kts 54°
2026-04-22 21:47 41.47166 -72.93541 27699 ft 485 kts 54°
2026-04-22 21:47 41.48874 -72.89638 28022 ft 490 kts 54°
2026-04-22 21:47 41.50600 -72.85700 28462 ft 493 kts 54°
2026-04-22 21:47 41.52334 -72.81742 28895 ft 495 kts 53°
2026-04-22 21:48 41.54082 -72.77752 29313 ft 498 kts 53°
2026-04-22 21:48 41.55838 -72.73739 29710 ft 501 kts 53°
2026-04-22 21:48 41.57604 -72.69703 30088 ft 504 kts 53°
2026-04-22 21:48 41.59378 -72.65645 30409 ft 507 kts 54°
2026-04-22 21:49 41.61132 -72.61623 30736 ft 509 kts 54°
2026-04-22 21:49 41.62920 -72.57520 31032 ft 511 kts 54°
2026-04-22 21:49 41.64714 -72.53401 31277 ft 514 kts 53°
2026-04-22 21:49 41.66541 -72.49290 31628 ft 514 kts 53°
2026-04-22 21:50 41.68384 -72.45204 32121 ft 511 kts 52°
2026-04-22 21:50 41.70228 -72.41134 32582 ft 508 kts 52°
2026-04-22 21:50 41.72059 -72.37092 33004 ft 507 kts 52°
2026-04-22 21:50 41.73882 -72.33057 33391 ft 506 kts 52°
2026-04-22 21:51 41.75698 -72.29024 33781 ft 505 kts 53°
2026-04-22 21:51 41.77507 -72.24993 34188 ft 504 kts 53°
2026-04-22 21:51 41.79319 -72.20948 34386 ft 506 kts 53°
2026-04-22 21:52 41.82938 -72.12849 34930 ft 505 kts 53°
2026-04-22 21:52 41.84711 -72.08866 35265 ft 503 kts 53°
2026-04-22 21:52 41.86506 -72.04830 35533 ft 503 kts 53°
2026-04-22 21:52 41.88301 -72.00790 35766 ft 503 kts 53°
2026-04-22 21:53 41.90092 -71.96756 35999 ft 503 kts 53°
2026-04-22 21:53 41.91883 -71.92718 36250 ft 503 kts 53°
2026-04-22 21:53 41.93673 -71.88674 36464 ft 504 kts 53°
2026-04-22 21:53 41.95468 -71.84619 36619 ft 505 kts 53°
2026-04-22 21:54 41.97285 -71.80589 36870 ft 503 kts 51°
2026-04-22 21:54 41.99155 -71.76624 37132 ft 501 kts 50°
2026-04-22 21:54 42.01053 -71.72684 37365 ft 501 kts 50°
2026-04-22 21:54 42.02951 -71.68757 37560 ft 500 kts 50°
2026-04-22 21:55 42.04845 -71.64824 37760 ft 500 kts 50°
2026-04-22 21:55 42.06728 -71.60888 37954 ft 500 kts 50°
2026-04-22 21:55 42.08582 -71.56991 38149 ft 500 kts 50°
2026-04-22 21:55 42.10475 -71.52992 38330 ft 500 kts 51°
2026-04-22 21:56 42.12322 -71.49080 38495 ft 501 kts 51°
2026-04-22 21:56 42.14192 -71.45112 38649 ft 501 kts 51°
2026-04-22 21:56 42.16058 -71.41143 38801 ft 501 kts 51°
2026-04-22 21:56 42.17922 -71.37174 38929 ft 501 kts 51°
2026-04-22 21:57 42.19791 -71.33191 39017 ft 501 kts 51°
2026-04-22 21:57 42.23523 -71.25225 39131 ft 504 kts 51°
2026-04-22 21:58 42.27250 -71.17249 39147 ft 505 kts 51°
2026-04-22 21:58 42.30989 -71.09223 39137 ft 505 kts 51°
2026-04-22 21:59 42.34512 -71.00975 39137 ft 513 kts 60°
2026-04-22 21:59 42.36402 -70.91559 39138 ft 525 kts 76°
2026-04-22 22:00 42.37202 -70.83400 39137 ft 528 kts 79°
2026-04-22 22:00 42.37993 -70.73510 39141 ft 529 kts 79°
2026-04-22 22:01 42.38779 -70.63599 39144 ft 529 kts 79°
2026-04-22 22:01 42.39588 -70.53694 39155 ft 529 kts 79°
2026-04-22 22:02 42.40404 -70.43798 39149 ft 529 kts 79°
2026-04-22 22:02 42.41208 -70.33961 39149 ft 529 kts 79°
2026-04-22 22:03 42.42008 -70.24052 39148 ft 529 kts 79°
2026-04-22 22:03 42.42799 -70.14141 39154 ft 530 kts 80°
2026-04-22 22:04 42.43583 -70.04198 39151 ft 530 kts 80°
2026-04-22 22:04 42.44357 -69.94262 39164 ft 530 kts 80°
2026-04-22 22:05 42.45116 -69.84412 39152 ft 530 kts 80°
2026-04-22 22:05 42.45874 -69.74468 39159 ft 531 kts 80°
2026-04-22 22:06 42.46623 -69.64527 39164 ft 531 kts 81°
2026-04-22 22:06 42.47366 -69.54545 39157 ft 531 kts 81°
2026-04-22 22:07 42.48095 -69.44640 39169 ft 532 kts 81°
2026-04-22 22:07 42.48820 -69.34663 39168 ft 532 kts 81°
2026-04-22 22:08 42.49536 -69.24686 39175 ft 532 kts 81°
2026-04-22 22:08 42.50245 -69.14700 39179 ft 533 kts 81°
2026-04-22 22:09 42.50947 -69.04675 39178 ft 533 kts 81°
2026-04-22 22:09 42.51634 -68.94730 39181 ft 534 kts 81°
2026-04-22 22:10 42.52318 -68.84706 39190 ft 534 kts 81°
2026-04-22 22:10 42.52995 -68.74663 39181 ft 534 kts 81°
2026-04-22 22:11 42.53663 -68.64619 39187 ft 535 kts 81°
2026-04-22 22:11 42.54318 -68.54638 39189 ft 535 kts 82°
2026-04-22 22:12 42.54969 -68.44581 39207 ft 535 kts 82°
2026-04-22 22:12 42.55612 -68.34505 39193 ft 536 kts 82°
2026-04-22 22:13 42.56246 -68.24436 39197 ft 536 kts 82°
2026-04-22 22:13 42.56870 -68.14366 39198 ft 535 kts 82°
2026-04-22 22:14 42.57485 -68.04302 39202 ft 534 kts 82°
2026-04-22 22:14 42.58088 -67.94316 39196 ft 534 kts 82°
2026-04-22 22:15 42.58686 -67.84248 39202 ft 534 kts 82°
2026-04-22 22:15 42.59275 -67.74185 39207 ft 534 kts 82°
2026-04-22 22:16 42.59854 -67.64126 39212 ft 534 kts 82°
2026-04-22 22:16 42.60425 -67.54063 39212 ft 534 kts 82°
2026-04-22 22:17 42.60984 -67.44068 39211 ft 534 kts 82°
2026-04-22 22:17 42.61536 -67.34011 39213 ft 534 kts 83°
2026-04-22 22:18 42.62081 -67.23943 39216 ft 534 kts 83°
2026-04-22 22:18 42.62613 -67.13944 39218 ft 533 kts 83°
2026-04-22 22:19 42.63301 -67.03909 39227 ft 530 kts 76°
2026-04-22 22:19 42.65686 -66.94601 39225 ft 518 kts 58°
2026-04-22 22:20 42.69131 -66.86008 39215 ft 517 kts 56°
2026-04-22 22:20 42.72716 -66.77590 39224 ft 517 kts 55°
2026-04-22 22:21 42.76322 -66.69099 39239 ft 518 kts 56°
2026-04-22 22:21 42.79894 -66.60583 39221 ft 517 kts 56°
2026-04-22 22:22 42.83446 -66.52050 39222 ft 517 kts 56°
2026-04-22 22:22 42.86988 -66.43510 39227 ft 517 kts 56°
2026-04-22 22:23 42.90504 -66.35011 39220 ft 517 kts 56°
2026-04-22 22:23 42.94033 -66.26458 39222 ft 517 kts 56°
2026-04-22 22:24 42.97554 -66.17900 39224 ft 517 kts 57°
2026-04-22 22:24 43.01072 -66.09324 39226 ft 517 kts 57°
2026-04-22 22:25 43.04580 -66.00746 39222 ft 517 kts 57°
2026-04-22 22:25 43.08063 -65.92206 39222 ft 517 kts 57°
2026-04-22 22:26 43.11565 -65.83590 39224 ft 517 kts 57°
2026-04-22 22:26 43.15050 -65.74994 39228 ft 517 kts 57°
2026-04-22 22:27 43.18516 -65.66417 39222 ft 517 kts 57°
2026-04-22 22:27 43.22014 -65.57737 39222 ft 517 kts 57°
2026-04-22 22:28 43.25464 -65.49149 39218 ft 518 kts 58°
2026-04-22 22:28 43.28936 -65.40480 39222 ft 518 kts 58°
2026-04-22 22:29 43.32404 -65.31793 39219 ft 518 kts 58°
2026-04-22 22:29 43.35846 -65.23147 39221 ft 518 kts 58°
2026-04-22 22:30 43.39302 -65.14438 39233 ft 518 kts 58°
2026-04-22 22:30 43.42748 -65.05729 39218 ft 518 kts 58°
2026-04-22 22:31 43.46191 -64.97000 39211 ft 518 kts 58°
2026-04-22 22:31 43.49598 -64.88337 39212 ft 518 kts 59°
2026-04-22 22:32 43.53031 -64.79582 39209 ft 519 kts 59°
2026-04-22 22:32 43.56453 -64.70826 39208 ft 519 kts 59°
2026-04-22 22:33 43.59872 -64.62051 39206 ft 519 kts 59°
2026-04-22 22:33 43.63284 -64.53268 39206 ft 519 kts 59°
2026-04-22 22:34 43.66689 -64.44474 39204 ft 519 kts 59°
2026-04-22 22:34 43.70063 -64.35733 39201 ft 519 kts 59°
2026-04-22 22:35 43.73453 -64.26924 39198 ft 519 kts 59°
2026-04-22 22:35 43.76839 -64.18098 39196 ft 519 kts 60°
2026-04-22 22:36 43.80217 -64.09265 39200 ft 519 kts 60°
2026-04-22 22:36 43.83589 -64.00420 39198 ft 519 kts 60°
2026-04-22 22:37 43.86955 -63.91562 39195 ft 519 kts 60°
2026-04-22 22:37 43.90313 -63.82697 39198 ft 519 kts 60°
2026-04-22 22:38 43.93647 -63.73870 39197 ft 519 kts 60°
2026-04-22 22:38 43.96988 -63.64991 39194 ft 519 kts 60°
2026-04-22 22:39 44.00331 -63.56083 39193 ft 519 kts 60°
2026-04-22 22:39 44.03646 -63.47222 39196 ft 519 kts 60°
2026-04-22 22:40 44.06973 -63.38296 39195 ft 519 kts 61°
2026-04-22 22:40 44.10292 -63.29366 39186 ft 519 kts 61°
2026-04-22 22:41 44.13601 -63.20431 39197 ft 519 kts 61°
2026-04-22 22:41 44.16904 -63.11488 39186 ft 519 kts 61°
2026-04-22 22:42 44.20178 -63.02593 39187 ft 519 kts 61°
2026-04-22 22:42 44.23465 -62.93633 39188 ft 519 kts 61°
2026-04-22 22:43 44.26750 -62.84650 39190 ft 519 kts 61°
2026-04-22 22:43 44.30017 -62.75686 39186 ft 517 kts 62°
2026-04-22 22:44 44.33271 -62.66729 39185 ft 517 kts 62°
2026-04-22 22:44 44.36504 -62.57802 39184 ft 517 kts 62°
2026-04-22 22:45 44.39743 -62.48826 39180 ft 517 kts 62°
2026-04-22 22:45 44.42975 -62.39843 39182 ft 516 kts 62°
2026-04-22 22:46 44.46197 -62.30856 39182 ft 516 kts 62°
2026-04-22 22:46 44.49411 -62.21863 39181 ft 516 kts 62°
2026-04-22 22:47 44.52083 -62.14368 39183 ft 516 kts 63°
2026-04-22 22:47 44.55282 -62.05363 39180 ft 515 kts 63°
2026-04-22 22:48 44.58468 -61.96362 39181 ft 515 kts 63°
2026-04-22 22:48 44.61632 -61.87396 39182 ft 515 kts 63°
2026-04-22 22:49 44.64800 -61.78391 39181 ft 513 kts 64°
2026-04-22 22:49 44.67946 -61.69418 39178 ft 511 kts 64°
2026-04-22 22:50 44.71081 -61.60444 39174 ft 511 kts 64°
2026-04-22 22:50 44.74220 -61.51430 39175 ft 514 kts 64°
2026-04-22 22:51 44.77339 -61.42444 39175 ft 511 kts 65°
2026-04-22 22:51 44.80445 -61.33463 39175 ft 510 kts 65°
2026-04-22 22:52 44.83538 -61.24491 39178 ft 509 kts 65°
2026-04-22 22:52 44.86628 -61.15499 39176 ft 509 kts 65°
2026-04-22 22:53 44.89712 -61.06495 39173 ft 509 kts 65°
2026-04-22 22:53 44.92794 -60.97465 39173 ft 509 kts 65°
2026-04-22 22:54 44.95865 -60.88435 39172 ft 511 kts 66°
2026-04-22 22:54 44.98938 -60.79368 39168 ft 511 kts 66°
2026-04-22 22:55 45.01988 -60.70340 39158 ft 512 kts 66°
2026-04-22 22:55 45.06582 -60.56684 39163 ft 512 kts 66°
2026-04-22 22:56 45.09633 -60.47576 39162 ft 512 kts 66°
2026-04-22 22:56 45.12656 -60.38525 39160 ft 511 kts 66°
2026-04-22 22:57 45.15689 -60.29404 39153 ft 511 kts 66°
2026-04-22 22:57 45.18714 -60.20280 39140 ft 512 kts 67°
2026-04-22 22:58 45.21736 -60.11131 39143 ft 512 kts 67°
2026-04-22 22:58 45.24758 -60.01952 39143 ft 512 kts 67°
2026-04-22 22:59 45.27746 -59.92842 39138 ft 512 kts 68°
2026-04-22 22:59 45.30744 -59.83671 39135 ft 512 kts 68°
2026-04-22 23:00 45.33733 -59.74500 39133 ft 512 kts 67°
2026-04-22 23:00 45.36718 -59.65310 39131 ft 510 kts 68°
2026-04-22 23:01 45.39685 -59.56138 39130 ft 509 kts 68°
2026-04-22 23:01 45.42634 -59.46986 39127 ft 509 kts 68°
2026-04-22 23:02 45.45579 -59.37815 39128 ft 509 kts 68°
2026-04-22 23:02 45.48518 -59.28637 39121 ft 509 kts 68°
2026-04-22 23:03 45.51428 -59.19511 39126 ft 509 kts 68°
2026-04-22 23:03 45.54348 -59.10323 39111 ft 509 kts 69°
2026-04-22 23:04 45.57263 -59.01117 39108 ft 509 kts 69°
2026-04-22 23:04 45.60168 -58.91914 39111 ft 508 kts 69°
2026-04-22 23:05 45.63062 -58.82710 39107 ft 508 kts 69°
2026-04-22 23:05 45.65949 -58.73494 39103 ft 508 kts 69°
2026-04-22 23:06 45.68830 -58.64264 39097 ft 508 kts 69°
2026-04-22 23:06 45.71690 -58.55074 39100 ft 508 kts 70°
2026-04-22 23:07 45.74552 -58.45839 39086 ft 508 kts 70°
2026-04-22 23:07 45.77410 -58.36584 39083 ft 507 kts 70°
2026-04-22 23:08 45.80257 -58.27330 39083 ft 507 kts 70°
2026-04-22 23:08 45.83084 -58.18109 39069 ft 507 kts 70°
2026-04-22 23:09 45.85910 -58.08859 39058 ft 507 kts 70°
2026-04-22 23:09 45.88733 -57.99580 39056 ft 507 kts 70°
2026-04-22 23:10 45.91551 -57.90288 39056 ft 507 kts 70°
2026-04-22 23:10 45.94360 -57.80989 39052 ft 507 kts 70°
2026-04-22 23:11 45.97158 -57.71696 39044 ft 507 kts 70°
2026-04-22 23:11 45.99949 -57.62389 39039 ft 507 kts 70°
2026-04-22 23:12 46.02730 -57.53079 39025 ft 506 kts 71°
2026-04-22 23:12 46.05486 -57.43822 39026 ft 506 kts 71°
2026-04-22 23:13 46.08250 -57.34502 39029 ft 505 kts 71°
2026-04-22 23:13 46.11003 -57.25181 39009 ft 505 kts 71°
2026-04-22 23:14 46.13748 -57.15855 39009 ft 505 kts 71°
2026-04-22 23:14 46.16474 -57.06558 39009 ft 505 kts 71°
2026-04-22 23:15 46.19209 -56.97193 38999 ft 505 kts 71°
2026-04-22 23:15 46.21934 -56.87831 38999 ft 505 kts 71°
2026-04-22 23:16 46.24650 -56.78463 39002 ft 505 kts 71°
2026-04-22 23:16 46.27361 -56.69078 38998 ft 505 kts 72°
2026-04-22 23:17 46.30038 -56.59772 38994 ft 505 kts 72°
2026-04-22 23:17 46.32728 -56.50389 38974 ft 505 kts 72°
2026-04-22 23:18 46.35413 -56.40984 38973 ft 505 kts 72°
2026-04-22 23:18 46.38087 -56.31582 38962 ft 505 kts 72°
2026-04-22 23:19 46.40734 -56.22238 38965 ft 504 kts 72°
2026-04-22 23:19 46.43390 -56.12829 38961 ft 504 kts 72°
2026-04-22 23:20 46.46040 -56.03400 38946 ft 504 kts 72°
2026-04-22 23:20 46.48681 -55.93969 38927 ft 504 kts 73°
2026-04-22 23:21 46.51310 -55.84546 38943 ft 503 kts 73°
2026-04-22 23:21 46.53917 -55.75164 38897 ft 503 kts 73°
2026-04-22 23:22 46.56530 -55.65722 38932 ft 503 kts 73°
2026-04-22 23:22 46.59120 -55.56329 38927 ft 503 kts 73°
2026-04-22 23:23 46.61711 -55.46892 38925 ft 502 kts 73°
2026-04-22 23:23 46.64296 -55.37445 38925 ft 502 kts 73°
2026-04-22 23:24 46.66867 -55.28006 38920 ft 501 kts 73°
2026-04-22 23:24 46.69435 -55.18539 38920 ft 501 kts 73°
2026-04-22 23:25 46.71974 -55.09149 38904 ft 501 kts 74°
2026-04-22 23:25 46.74518 -54.99699 38906 ft 500 kts 74°
2026-04-22 23:26 46.77048 -54.90259 38897 ft 500 kts 74°
2026-04-22 23:26 46.79580 -54.80778 38889 ft 500 kts 74°
2026-04-22 23:27 46.82084 -54.71361 38876 ft 500 kts 74°
2026-04-22 23:27 46.84594 -54.61891 38868 ft 499 kts 74°
2026-04-22 23:28 46.87094 -54.52416 38865 ft 499 kts 74°
2026-04-22 23:28 46.89587 -54.42928 38843 ft 499 kts 75°
2026-04-22 23:29 46.92073 -54.33426 38813 ft 499 kts 75°
2026-04-22 23:29 46.94529 -54.24008 38831 ft 497 kts 75°
2026-04-22 23:30 46.96987 -54.14540 38799 ft 497 kts 75°
2026-04-22 23:30 46.99436 -54.05063 38810 ft 497 kts 75°
2026-04-22 23:31 47.01875 -53.95587 38796 ft 497 kts 75°
2026-04-22 23:31 47.04305 -53.86113 38778 ft 495 kts 75°
2026-04-22 23:32 47.06703 -53.76723 38768 ft 494 kts 75°
2026-04-22 23:32 47.09104 -53.67277 38759 ft 494 kts 75°
2026-04-22 23:33 47.11502 -53.57808 38757 ft 494 kts 75°
2026-04-22 23:33 47.13885 -53.48357 38738 ft 492 kts 76°
2026-04-22 23:34 47.15850 -53.40543 38743 ft 490 kts 76°
2026-04-22 23:34 47.18584 -53.29614 38737 ft 489 kts 76°
2026-04-22 23:35 47.20920 -53.20232 38733 ft 488 kts 76°
2026-04-22 23:35 47.22860 -53.12411 38726 ft 488 kts 76°
2026-04-22 23:36 47.25180 -53.03023 38720 ft 488 kts 76°
2026-04-22 23:36 47.27495 -52.93617 38720 ft 488 kts 76°
2026-04-22 23:37 47.29790 -52.84255 38709 ft 488 kts 76°
2026-04-22 23:37 47.32088 -52.74839 38708 ft 488 kts 76°
2026-04-22 23:38 47.34374 -52.65441 38706 ft 485 kts 77°
2026-04-22 23:38 47.36638 -52.56095 38711 ft 482 kts 77°
2026-04-22 23:39 47.38883 -52.46774 38714 ft 481 kts 77°
2026-04-22 23:39 47.41117 -52.37462 38721 ft 481 kts 77°
2026-04-22 23:40 47.43342 -52.28148 38701 ft 480 kts 77°
2026-04-22 23:40 47.45544 -52.18898 38730 ft 478 kts 78°
2026-04-22 23:41 47.47745 -52.09612 38738 ft 478 kts 78°
2026-04-22 23:41 47.49934 -52.00332 38749 ft 478 kts 78°
2026-04-22 23:42 47.52239 -51.91071 38751 ft 480 kts 76°
2026-04-22 23:42 47.54662 -51.81934 38745 ft 479 kts 76°
2026-04-22 23:43 47.57081 -51.72749 38750 ft 478 kts 76°
2026-04-22 23:43 47.59460 -51.63556 38744 ft 477 kts 76°
2026-04-22 23:44 47.61820 -51.54347 38758 ft 478 kts 77°
2026-04-22 23:44 47.64161 -51.45179 38731 ft 478 kts 77°
2026-04-22 23:45 47.66511 -51.35941 38766 ft 478 kts 77°
2026-04-22 23:45 47.68853 -51.26701 38765 ft 478 kts 77°
2026-04-22 23:46 47.71189 -51.17445 38772 ft 478 kts 77°
2026-04-22 23:46 47.73518 -51.08181 38774 ft 478 kts 77°
2026-04-22 23:47 47.75822 -50.98977 38778 ft 480 kts 78°
2026-04-22 23:47 47.78145 -50.89649 38779 ft 481 kts 78°
2026-04-22 23:48 47.80467 -50.80305 38784 ft 481 kts 78°
2026-04-22 23:48 47.82779 -50.70960 38791 ft 482 kts 78°
2026-04-22 23:49 47.85097 -50.61537 38775 ft 485 kts 77°
2026-04-22 23:49 47.87417 -50.52081 38802 ft 486 kts 77°
2026-04-22 23:50 47.89730 -50.42611 38803 ft 486 kts 77°
2026-04-22 23:50 47.92020 -50.33195 38814 ft 486 kts 77°
2026-04-22 23:51 47.94318 -50.23703 38815 ft 486 kts 78°
2026-04-22 23:51 47.96605 -50.14212 38819 ft 484 kts 77°
2026-04-22 23:52 47.98875 -50.04759 38828 ft 484 kts 77°
2026-04-22 23:52 48.01152 -49.95306 38834 ft 484 kts 76°
2026-04-22 23:53 48.03527 -49.85887 38839 ft 485 kts 76°
2026-04-22 23:53 48.05916 -49.76472 38829 ft 483 kts 74°
2026-04-22 23:54 48.08271 -49.67092 38854 ft 481 kts 75°
2026-04-22 23:54 48.10591 -49.57761 38856 ft 481 kts 75°
2026-04-22 23:55 48.12913 -49.48368 38867 ft 481 kts 75°
2026-04-22 23:55 48.15230 -49.38966 38855 ft 481 kts 75°
2026-04-22 23:56 48.17540 -49.29545 38879 ft 484 kts 75°
2026-04-22 23:56 48.19841 -49.20129 38895 ft 484 kts 75°
2026-04-22 23:57 48.22154 -49.10629 38892 ft 484 kts 75°
2026-04-22 23:57 48.24457 -49.01130 38903 ft 484 kts 75°
2026-04-22 23:58 48.26753 -48.91613 38903 ft 484 kts 75°
2026-04-22 23:58 48.29026 -48.82147 38905 ft 484 kts 75°
2026-04-22 23:59 48.31312 -48.72589 38914 ft 486 kts 75°
2026-04-22 23:59 48.33593 -48.63012 38914 ft 486 kts 75°
2026-04-23 00:00 48.36993 -48.48658 38924 ft 485 kts 74°
2026-04-23 00:01 48.39228 -48.39168 38927 ft 484 kts 74°
2026-04-23 00:01 48.41472 -48.29600 38932 ft 484 kts 74°
2026-04-23 00:02 48.43708 -48.20024 38942 ft 484 kts 74°
2026-04-23 00:02 48.45934 -48.10446 38933 ft 484 kts 74°
2026-04-23 00:03 48.48150 -48.00870 38959 ft 483 kts 74°
2026-04-23 00:03 48.50343 -47.91347 38959 ft 483 kts 74°
2026-04-23 00:04 48.52547 -47.81744 38958 ft 483 kts 74°
2026-04-23 00:04 48.54741 -47.72135 38966 ft 484 kts 74°
2026-04-23 00:05 48.56934 -47.62485 38987 ft 488 kts 74°
2026-04-23 00:05 48.59125 -47.52799 38994 ft 489 kts 73°
2026-04-23 00:06 48.61315 -47.43070 38996 ft 489 kts 74°
2026-04-23 00:06 48.63499 -47.33328 39001 ft 489 kts 73°
2026-04-23 00:07 48.65679 -47.23565 38998 ft 490 kts 73°
2026-04-23 00:07 48.67838 -47.13850 39007 ft 491 kts 73°
2026-04-23 00:08 48.70008 -47.04035 39012 ft 491 kts 73°
2026-04-23 00:08 48.72170 -46.94208 39023 ft 491 kts 73°
2026-04-23 00:09 48.74322 -46.84384 39020 ft 491 kts 73°
2026-04-23 00:09 48.76467 -46.74527 39021 ft 494 kts 72°
2026-04-23 00:10 48.78607 -46.64670 39039 ft 494 kts 72°
2026-04-23 00:10 48.80749 -46.54749 39041 ft 495 kts 72°
2026-04-23 00:11 48.82884 -46.44813 39038 ft 496 kts 72°
2026-04-23 00:11 48.85010 -46.34868 39052 ft 496 kts 71°
2026-04-23 00:12 48.87134 -46.24888 39039 ft 497 kts 71°
2026-04-23 00:12 48.89252 -46.14886 39045 ft 497 kts 71°
2026-04-23 00:13 48.91360 -46.04879 39059 ft 497 kts 71°
2026-04-23 00:13 48.93461 -45.94856 39070 ft 497 kts 71°
2026-04-23 00:14 48.95548 -45.84851 39065 ft 496 kts 71°
2026-04-23 00:14 48.97611 -45.74911 39069 ft 495 kts 71°
2026-04-23 00:15 48.99682 -45.64885 39079 ft 495 kts 71°
2026-04-23 00:15 49.01739 -45.54872 39076 ft 495 kts 71°
2026-04-23 00:16 49.03784 -45.44869 39083 ft 494 kts 71°
2026-04-23 00:16 49.05816 -45.34878 39086 ft 493 kts 71°
2026-04-23 00:17 49.07841 -45.24870 39088 ft 493 kts 71°
2026-04-23 00:17 49.09855 -45.14873 39088 ft 493 kts 71°
2026-04-23 00:18 49.11859 -45.04864 39099 ft 492 kts 70°
2026-04-23 00:18 49.13837 -44.94940 39093 ft 490 kts 70°
2026-04-23 00:19 49.15816 -44.84960 39095 ft 490 kts 70°
2026-04-23 00:19 49.17786 -44.74971 39107 ft 490 kts 70°
2026-04-23 00:20 49.19736 -44.65033 39100 ft 490 kts 70°
2026-04-23 00:20 49.21690 -44.55031 39105 ft 491 kts 70°
2026-04-23 00:21 49.23638 -44.45003 39106 ft 491 kts 70°
2026-04-23 00:21 49.25247 -44.36679 39104 ft 491 kts 70°
2026-04-23 00:22 49.27489 -44.25016 39106 ft 491 kts 71°
2026-04-23 00:22 49.29085 -44.16669 39113 ft 490 kts 70°
2026-04-23 00:23 49.30986 -44.06679 39107 ft 487 kts 70°
2026-04-23 00:23 49.32876 -43.96696 39110 ft 487 kts 70°
2026-04-23 00:24 49.34757 -43.86715 39110 ft 487 kts 70°
2026-04-23 00:24 49.36627 -43.76733 39113 ft 487 kts 71°
2026-04-23 00:25 49.38488 -43.66742 39113 ft 485 kts 70°
2026-04-23 00:25 49.40326 -43.56822 39118 ft 485 kts 70°
2026-04-23 00:26 49.42166 -43.46839 39116 ft 485 kts 71°
2026-04-23 00:26 49.43995 -43.36867 39119 ft 485 kts 71°
2026-04-23 00:27 49.45815 -43.26886 39135 ft 485 kts 70°
2026-04-23 00:27 49.47622 -43.16914 39117 ft 484 kts 70°
2026-04-23 00:28 49.49410 -43.07002 39119 ft 484 kts 70°
2026-04-23 00:28 49.51200 -42.97022 39122 ft 484 kts 71°
2026-04-23 00:29 49.52985 -42.87020 39129 ft 484 kts 71°
2026-04-23 00:29 49.54756 -42.77030 39124 ft 483 kts 70°
2026-04-23 00:30 49.56513 -42.67062 39135 ft 482 kts 70°
2026-04-23 00:30 49.58251 -42.57157 39128 ft 482 kts 70°
2026-04-23 00:31 49.59992 -42.47182 39127 ft 482 kts 70°
2026-04-23 00:31 49.61726 -42.37185 39164 ft 482 kts 70°
2026-04-23 00:32 49.63445 -42.27211 39134 ft 480 kts 70°
2026-04-23 00:32 49.65139 -42.17327 39128 ft 479 kts 70°
2026-04-23 00:33 49.66839 -42.07364 39127 ft 479 kts 70°
2026-04-23 00:33 49.68528 -41.97405 39124 ft 479 kts 70°
2026-04-23 00:34 49.70208 -41.87435 39147 ft 479 kts 70°
2026-04-23 00:34 49.71864 -41.77546 39132 ft 477 kts 70°
2026-04-23 00:35 49.73521 -41.67601 39133 ft 477 kts 70°
2026-04-23 00:35 49.75172 -41.57639 39128 ft 478 kts 70°
2026-04-23 00:36 49.76814 -41.47668 39132 ft 478 kts 70°
2026-04-23 00:36 49.78448 -41.37695 39137 ft 478 kts 71°
2026-04-23 00:37 49.80061 -41.27781 39130 ft 477 kts 71°
2026-04-23 00:37 49.81676 -41.17797 39133 ft 477 kts 71°
2026-04-23 00:38 49.83283 -41.07807 39134 ft 478 kts 71°
2026-04-23 00:38 49.84880 -40.97818 39162 ft 478 kts 71°
2026-04-23 00:39 49.86468 -40.87822 39127 ft 478 kts 71°
2026-04-23 00:39 49.88040 -40.77870 39127 ft 478 kts 72°
2026-04-23 00:40 49.89612 -40.67851 39131 ft 478 kts 72°
2026-04-23 00:40 49.91177 -40.57820 39129 ft 478 kts 72°
2026-04-23 00:41 49.92736 -40.47766 39131 ft 478 kts 72°
2026-04-23 00:41 49.94283 -40.37728 39130 ft 479 kts 72°
2026-04-23 00:42 49.95825 -40.27653 39124 ft 479 kts 72°
2026-04-23 00:42 49.97349 -40.17641 39125 ft 479 kts 72°
2026-04-23 00:43 49.98874 -40.07553 39124 ft 479 kts 72°
2026-04-23 00:43 50.00390 -39.97453 39118 ft 479 kts 73°
2026-04-23 00:44 50.01866 -39.87326 39124 ft 480 kts 73°
2026-04-23 00:44 50.03314 -39.77194 39121 ft 480 kts 73°
2026-04-23 00:45 50.04758 -39.67061 39120 ft 480 kts 73°
2026-04-23 00:45 50.06197 -39.56927 39142 ft 480 kts 73°
2026-04-23 00:46 50.07631 -39.46779 39114 ft 480 kts 73°
2026-04-23 00:46 50.09056 -39.36620 39115 ft 480 kts 73°
2026-04-23 00:47 50.10472 -39.26453 39114 ft 481 kts 74°
2026-04-23 00:47 50.11879 -39.16277 39109 ft 481 kts 74°
2026-04-23 00:48 50.13271 -39.06147 39120 ft 481 kts 74°
2026-04-23 00:48 50.14661 -38.95955 39106 ft 481 kts 74°
2026-04-23 00:49 50.16044 -38.85744 39103 ft 481 kts 74°
2026-04-23 00:49 50.17417 -38.75535 39103 ft 481 kts 74°
2026-04-23 00:50 50.18782 -38.65316 39099 ft 481 kts 74°
2026-04-23 00:50 50.20139 -38.55083 39102 ft 480 kts 75°
2026-04-23 00:51 50.21481 -38.44886 39089 ft 479 kts 75°
2026-04-23 00:51 50.22806 -38.34744 39096 ft 479 kts 75°
2026-04-23 00:52 50.24133 -38.24524 39103 ft 479 kts 75°
2026-04-23 00:52 50.25448 -38.14313 39086 ft 480 kts 75°
2026-04-23 00:53 50.26757 -38.04077 39087 ft 479 kts 75°
2026-04-23 00:53 50.28053 -37.93862 39082 ft 478 kts 75°
2026-04-23 00:54 50.29339 -37.83658 39082 ft 478 kts 75°
2026-04-23 00:54 50.30616 -37.73438 39073 ft 478 kts 76°
2026-04-23 00:55 50.31884 -37.63218 39089 ft 478 kts 76°
2026-04-23 00:55 50.33142 -37.53007 39063 ft 478 kts 76°
2026-04-23 00:56 50.34385 -37.42836 39059 ft 478 kts 76°
2026-04-23 00:56 50.35625 -37.32607 39054 ft 478 kts 76°
2026-04-23 00:57 50.36856 -37.22372 39058 ft 478 kts 76°
2026-04-23 00:57 50.38079 -37.12129 39072 ft 478 kts 76°
2026-04-23 00:58 50.39293 -37.01882 39046 ft 479 kts 76°
2026-04-23 00:58 50.40492 -36.91678 39048 ft 479 kts 77°
2026-04-23 00:59 50.41690 -36.81400 39039 ft 479 kts 77°
2026-04-23 00:59 50.42880 -36.71114 39037 ft 479 kts 77°
2026-04-23 01:00 50.44060 -36.60823 39040 ft 478 kts 77°
2026-04-23 01:00 50.45219 -36.50628 39040 ft 477 kts 77°
2026-04-23 01:01 50.46376 -36.40371 39022 ft 477 kts 77°
2026-04-23 01:01 50.47524 -36.30115 39021 ft 477 kts 77°
2026-04-23 01:02 50.48665 -36.19834 39018 ft 477 kts 77°
2026-04-23 01:02 50.49793 -36.09575 39016 ft 476 kts 78°
2026-04-23 01:03 50.50912 -35.99323 39014 ft 476 kts 78°
2026-04-23 01:03 50.52012 -35.89147 39007 ft 476 kts 78°
2026-04-23 01:04 50.53112 -35.78897 38999 ft 476 kts 78°
2026-04-23 01:04 50.54746 -35.63491 39000 ft 475 kts 78°
2026-04-23 01:05 50.55818 -35.53272 38995 ft 472 kts 78°
2026-04-23 01:05 50.56871 -35.43144 38993 ft 472 kts 78°
2026-04-23 01:06 50.57923 -35.32939 38993 ft 472 kts 78°
2026-04-23 01:06 50.58966 -35.22735 38987 ft 472 kts 78°
2026-04-23 01:07 50.59999 -35.12534 38991 ft 472 kts 78°
2026-04-23 01:07 50.61025 -35.02311 38977 ft 472 kts 78°
2026-04-23 01:08 50.62040 -34.92102 38975 ft 472 kts 79°
2026-04-23 01:08 50.63041 -34.81936 38975 ft 472 kts 78°
2026-04-23 01:09 50.64039 -34.71706 38977 ft 472 kts 79°
2026-04-23 01:09 50.64863 -34.63193 38961 ft 472 kts 79°
2026-04-23 01:10 50.65841 -34.52987 38964 ft 471 kts 79°
2026-04-23 01:10 50.66810 -34.42784 38956 ft 471 kts 79°
2026-04-23 01:11 50.67771 -34.32566 38957 ft 471 kts 79°
2026-04-23 01:11 50.68724 -34.22340 38952 ft 471 kts 79°
2026-04-23 01:12 50.69661 -34.12182 38937 ft 470 kts 79°
2026-04-23 01:12 50.70593 -34.01979 38940 ft 469 kts 79°
2026-04-23 01:13 50.71518 -33.91754 38948 ft 469 kts 80°
2026-04-23 01:13 50.72425 -33.81621 38929 ft 469 kts 80°
2026-04-23 01:14 50.73330 -33.71415 38930 ft 469 kts 80°
2026-04-23 01:14 50.74227 -33.61190 38918 ft 468 kts 80°
2026-04-23 01:15 50.75111 -33.51009 38923 ft 468 kts 80°
2026-04-23 01:15 50.75982 -33.40871 38919 ft 468 kts 80°
2026-04-23 01:16 50.76848 -33.30680 38914 ft 467 kts 80°
2026-04-23 01:16 50.77705 -33.20491 38900 ft 467 kts 80°
2026-04-23 01:17 50.78549 -33.10351 38895 ft 467 kts 81°
2026-04-23 01:17 50.79387 -33.00171 38892 ft 466 kts 81°
2026-04-23 01:18 50.80214 -32.90006 38895 ft 466 kts 81°
2026-04-23 01:18 50.81033 -32.79834 38885 ft 466 kts 81°
2026-04-23 01:19 50.81844 -32.69661 38872 ft 467 kts 81°
2026-04-23 01:19 50.82645 -32.59486 38868 ft 466 kts 81°
2026-04-23 01:20 50.83435 -32.49326 38873 ft 465 kts 81°
2026-04-23 01:20 50.84216 -32.39175 38862 ft 465 kts 81°
2026-04-23 01:21 50.84987 -32.29030 38849 ft 465 kts 81°
2026-04-23 01:21 50.85751 -32.18865 38847 ft 465 kts 81°
2026-04-23 01:22 50.86499 -32.08789 38843 ft 463 kts 81°
2026-04-23 01:22 50.87243 -31.98653 38845 ft 462 kts 81°
2026-04-23 01:23 50.87977 -31.88531 38844 ft 462 kts 81°
2026-04-23 01:23 50.88702 -31.78396 38826 ft 462 kts 81°
2026-04-23 01:24 50.89419 -31.68267 38825 ft 462 kts 82°
2026-04-23 01:24 50.90122 -31.58198 38821 ft 462 kts 82°
2026-04-23 01:25 50.90821 -31.48054 38819 ft 462 kts 81°
2026-04-23 01:25 50.91510 -31.37922 38811 ft 462 kts 81°
2026-04-23 01:26 50.92191 -31.27794 38802 ft 463 kts 82°
2026-04-23 01:26 50.92864 -31.17644 38793 ft 463 kts 82°
2026-04-23 01:27 50.93528 -31.07487 38799 ft 463 kts 82°
2026-04-23 01:27 50.94183 -30.97332 38791 ft 463 kts 82°
2026-04-23 01:28 50.94831 -30.87149 38780 ft 463 kts 82°
2026-04-23 01:28 50.95465 -30.77049 38772 ft 463 kts 82°
2026-04-23 01:29 50.96095 -30.66856 38772 ft 463 kts 82°
2026-04-23 01:29 50.96715 -30.56695 38769 ft 462 kts 83°
2026-04-23 01:30 50.97321 -30.46600 38770 ft 461 kts 83°
2026-04-23 01:30 50.97923 -30.36439 38753 ft 462 kts 83°
2026-04-23 01:31 50.98516 -30.26291 38754 ft 462 kts 83°
2026-04-23 01:31 50.99098 -30.16152 38753 ft 461 kts 83°
2026-04-23 01:32 50.99673 -30.05986 38749 ft 462 kts 83°
2026-04-23 01:32 51.00226 -29.95887 38730 ft 462 kts 84°
2026-04-23 01:33 51.00656 -29.85698 38728 ft 461 kts 84°
2026-04-23 01:33 51.01043 -29.75521 38727 ft 461 kts 85°
2026-04-23 01:34 51.01438 -29.65340 38733 ft 461 kts 84°
2026-04-23 01:34 51.01834 -29.55236 38725 ft 460 kts 85°
2026-04-23 01:35 51.02227 -29.45036 38718 ft 460 kts 85°
2026-04-23 01:35 51.02607 -29.34955 38709 ft 460 kts 85°
2026-04-23 01:36 51.02982 -29.24788 38714 ft 460 kts 85°
2026-04-23 01:36 51.03344 -29.14700 38708 ft 460 kts 85°
2026-04-23 01:37 51.03699 -29.04555 38698 ft 459 kts 85°
2026-04-23 01:37 51.04046 -28.94388 38694 ft 460 kts 85°
2026-04-23 01:38 51.04384 -28.84232 38693 ft 460 kts 85°
2026-04-23 01:38 51.04713 -28.74070 38693 ft 460 kts 85°
2026-04-23 01:39 51.05033 -28.63919 38681 ft 460 kts 85°
2026-04-23 01:39 51.05343 -28.53824 38677 ft 460 kts 86°
2026-04-23 01:40 51.05646 -28.43675 38674 ft 460 kts 86°
2026-04-23 01:40 51.05939 -28.33523 38676 ft 459 kts 86°
2026-04-23 01:41 51.06224 -28.23361 38677 ft 459 kts 86°
2026-04-23 01:41 51.06499 -28.13205 38660 ft 459 kts 86°
2026-04-23 01:42 51.06767 -28.03041 38663 ft 460 kts 87°
2026-04-23 01:42 51.07025 -27.92945 38664 ft 460 kts 87°
2026-04-23 01:43 51.07275 -27.82756 38662 ft 461 kts 87°
2026-04-23 01:43 51.07516 -27.72574 38652 ft 461 kts 87°
2026-04-23 01:44 51.07748 -27.62392 38651 ft 460 kts 88°
2026-04-23 01:44 51.07972 -27.52229 38647 ft 459 kts 88°
2026-04-23 01:45 51.08187 -27.42070 38650 ft 459 kts 88°
2026-04-23 01:45 51.08390 -27.31985 38653 ft 459 kts 88°
2026-04-23 01:46 51.08586 -27.21850 38635 ft 459 kts 88°
2026-04-23 01:46 51.08774 -27.11700 38640 ft 459 kts 88°
2026-04-23 01:47 51.08953 -27.01552 38636 ft 459 kts 88°
2026-04-23 01:47 51.09123 -26.91407 38637 ft 458 kts 89°
2026-04-23 01:48 51.09284 -26.81329 38630 ft 458 kts 89°
2026-04-23 01:48 51.09436 -26.71183 38626 ft 459 kts 89°
2026-04-23 01:49 51.09580 -26.61004 38627 ft 459 kts 89°
2026-04-23 01:49 51.09714 -26.50924 38633 ft 459 kts 89°
2026-04-23 01:50 51.09841 -26.40743 38620 ft 460 kts 89°
2026-04-23 01:50 51.09959 -26.30551 38621 ft 460 kts 90°
2026-04-23 01:51 51.10068 -26.20348 38624 ft 460 kts 90°
2026-04-23 01:51 51.10167 -26.10227 38625 ft 461 kts 90°
2026-04-23 01:52 51.10259 -26.00024 38622 ft 461 kts 90°
2026-04-23 01:52 51.10342 -25.89825 38612 ft 462 kts 90°
2026-04-23 01:53 51.10415 -25.79601 38617 ft 462 kts 90°
2026-04-23 01:53 51.10481 -25.69361 38621 ft 462 kts 90°
2026-04-23 01:54 51.10536 -25.59166 38616 ft 463 kts 90°
2026-04-23 01:54 51.10584 -25.48905 38607 ft 463 kts 90°
2026-04-23 01:55 51.10617 -25.40367 38601 ft 463 kts 91°
2026-04-23 01:55 51.10652 -25.28468 38602 ft 463 kts 91°
2026-04-23 01:56 51.10669 -25.19935 38608 ft 462 kts 91°
2026-04-23 01:56 51.10682 -25.09693 38608 ft 463 kts 91°
2026-04-23 01:57 51.10685 -24.99449 38596 ft 463 kts 91°
2026-04-23 01:57 51.10681 -24.89208 38597 ft 463 kts 91°
2026-04-23 01:58 51.10667 -24.79011 38598 ft 463 kts 91°
2026-04-23 01:58 51.10644 -24.68762 38601 ft 462 kts 91°
2026-04-23 01:59 51.10612 -24.58517 38591 ft 462 kts 92°
2026-04-23 01:59 51.10572 -24.48284 38583 ft 463 kts 92°
2026-04-23 02:00 51.10523 -24.38047 38579 ft 463 kts 92°
2026-04-23 02:00 51.10465 -24.27867 38585 ft 462 kts 92°
2026-04-23 02:01 51.10397 -24.17609 38583 ft 462 kts 92°
2026-04-23 02:01 51.10319 -24.07373 38582 ft 462 kts 92°
2026-04-23 02:02 51.10234 -23.97119 38587 ft 463 kts 93°
2026-04-23 02:02 51.10140 -23.86931 38572 ft 463 kts 93°
2026-04-23 02:03 51.10037 -23.76691 38586 ft 462 kts 93°
2026-04-23 02:03 51.09925 -23.66475 38569 ft 462 kts 93°
2026-04-23 02:04 51.09803 -23.56251 38574 ft 462 kts 93°
2026-04-23 02:04 51.09674 -23.46029 38577 ft 462 kts 94°
2026-04-23 02:05 51.09536 -23.35830 38553 ft 462 kts 94°
2026-04-23 02:05 51.09390 -23.25642 38560 ft 460 kts 94°
2026-04-23 02:06 51.09234 -23.15480 38558 ft 459 kts 94°
2026-04-23 02:06 51.09069 -23.05311 38569 ft 459 kts 94°
2026-04-23 02:07 51.08895 -22.95154 38572 ft 459 kts 94°
2026-04-23 02:07 51.08713 -22.85003 38574 ft 460 kts 94°
2026-04-23 02:08 51.08523 -22.74902 38561 ft 459 kts 95°
2026-04-23 02:08 51.08324 -22.64730 38568 ft 458 kts 94°
2026-04-23 02:09 51.08116 -22.54592 38568 ft 458 kts 95°
2026-04-23 02:09 51.07899 -22.44448 38578 ft 459 kts 95°
2026-04-23 02:10 51.07674 -22.34298 38571 ft 459 kts 95°
2026-04-23 02:10 51.07440 -22.24171 38571 ft 458 kts 96°
2026-04-23 02:11 51.07198 -22.14109 38574 ft 458 kts 96°
2026-04-23 02:11 51.06947 -22.03975 38587 ft 459 kts 96°
2026-04-23 02:12 51.06685 -21.93832 38579 ft 460 kts 96°
2026-04-23 02:12 51.06414 -21.83680 38588 ft 459 kts 96°
2026-04-23 02:13 51.06135 -21.73535 38587 ft 459 kts 96°
2026-04-23 02:13 51.05850 -21.63442 38602 ft 460 kts 96°
2026-04-23 02:14 51.05554 -21.53270 38603 ft 460 kts 96°
2026-04-23 02:14 51.05249 -21.43128 38606 ft 460 kts 96°
2026-04-23 02:15 51.04775 -21.27902 38607 ft 460 kts 97°
2026-04-23 02:16 51.04449 -21.17792 38614 ft 462 kts 97°
2026-04-23 02:16 51.04111 -21.07575 38614 ft 462 kts 97°
2026-04-23 02:17 51.03764 -20.97379 38618 ft 462 kts 97°
2026-04-23 02:17 51.03409 -20.87158 38617 ft 463 kts 97°
2026-04-23 02:18 51.03044 -20.76961 38631 ft 463 kts 97°
2026-04-23 02:18 51.02673 -20.66817 38634 ft 462 kts 97°
2026-04-23 02:19 51.02291 -20.56625 38633 ft 462 kts 97°
2026-04-23 02:19 51.01903 -20.46509 38629 ft 462 kts 97°
2026-04-23 02:20 51.01499 -20.36229 38641 ft 462 kts 97°
2026-04-23 02:20 51.01094 -20.26120 38648 ft 462 kts 97°
2026-04-23 02:21 51.00677 -20.15934 38653 ft 461 kts 97°
2026-04-23 02:21 51.00251 -20.05766 38650 ft 462 kts 98°
2026-04-23 02:22 51.00112 -19.95528 38661 ft 465 kts 93°
2026-04-23 02:22 51.00283 -19.85312 38662 ft 465 kts 92°
2026-04-23 02:23 51.00498 -19.75042 38672 ft 465 kts 92°
2026-04-23 02:23 51.00704 -19.64760 38671 ft 465 kts 92°
2026-04-23 02:24 51.00891 -19.54482 38677 ft 465 kts 92°
2026-04-23 02:24 51.01066 -19.44212 38677 ft 465 kts 92°
2026-04-23 02:25 51.01231 -19.33943 38677 ft 465 kts 93°
2026-04-23 02:25 51.01386 -19.23748 38672 ft 465 kts 92°
2026-04-23 02:26 51.01534 -19.13473 38697 ft 464 kts 93°
2026-04-23 02:26 51.01673 -19.03215 38711 ft 464 kts 93°
2026-04-23 02:27 51.01803 -18.92961 38702 ft 464 kts 93°
2026-04-23 02:27 51.01922 -18.82772 38719 ft 464 kts 93°
2026-04-23 02:28 51.02034 -18.72516 38696 ft 464 kts 93°
2026-04-23 02:28 51.02137 -18.62264 38738 ft 463 kts 93°
2026-04-23 02:29 51.02230 -18.52075 38733 ft 464 kts 93°
2026-04-23 02:29 51.02315 -18.41830 38746 ft 464 kts 94°
2026-04-23 02:30 51.02391 -18.31576 38742 ft 464 kts 94°
2026-04-23 02:30 51.02458 -18.21317 38746 ft 464 kts 94°
2026-04-23 02:31 51.02516 -18.11134 38756 ft 463 kts 94°
2026-04-23 02:31 51.02564 -18.00893 38768 ft 463 kts 94°
2026-04-23 02:32 51.02604 -17.90658 38768 ft 463 kts 94°
2026-04-23 02:32 51.02635 -17.80410 38782 ft 463 kts 94°
2026-04-23 02:33 51.02657 -17.70261 38775 ft 463 kts 94°
2026-04-23 02:33 51.02670 -17.59989 38794 ft 464 kts 94°
2026-04-23 02:34 51.02674 -17.49718 38993 ft 465 kts 94°
2026-04-23 02:34 51.02673 -17.44584 39201 ft 464 kts 94°
2026-04-23 02:34 51.02670 -17.39444 39369 ft 464 kts 94°
2026-04-23 02:34 51.02664 -17.34379 39522 ft 465 kts 94°
2026-04-23 02:35 51.02656 -17.29237 39669 ft 465 kts 94°
2026-04-23 02:35 51.02645 -17.24095 39796 ft 466 kts 94°
2026-04-23 02:35 51.02632 -17.18940 39850 ft 468 kts 94°
2026-04-23 02:35 51.02617 -17.13755 40002 ft 468 kts 94°
2026-04-23 02:36 51.02600 -17.08584 40168 ft 468 kts 94°
2026-04-23 02:36 51.02582 -17.03415 40334 ft 468 kts 94°
2026-04-23 02:36 51.02560 -16.98237 40473 ft 468 kts 94°
2026-04-23 02:36 51.02536 -16.93071 40605 ft 468 kts 94°
2026-04-23 02:37 51.02510 -16.87896 40732 ft 468 kts 94°
2026-04-23 02:37 51.02481 -16.82772 40835 ft 469 kts 94°
2026-04-23 02:37 51.02450 -16.77584 40838 ft 469 kts 95°
2026-04-23 02:38 51.02381 -16.67194 40836 ft 470 kts 95°
2026-04-23 02:38 51.02303 -16.56780 40851 ft 471 kts 95°
2026-04-23 02:39 51.02217 -16.46427 40864 ft 471 kts 95°
2026-04-23 02:39 51.02120 -16.36026 40860 ft 471 kts 95°
2026-04-23 02:40 51.02015 -16.25665 40844 ft 470 kts 95°
2026-04-23 02:40 51.01900 -16.15254 40869 ft 472 kts 95°
2026-04-23 02:41 51.01775 -16.04837 40884 ft 472 kts 95°
2026-04-23 02:41 51.01641 -15.94399 40883 ft 472 kts 95°
2026-04-23 02:42 51.01498 -15.83971 40896 ft 472 kts 95°
2026-04-23 02:42 51.01347 -15.73623 40890 ft 472 kts 95°
2026-04-23 02:43 51.01185 -15.63188 40908 ft 473 kts 95°
2026-04-23 02:43 51.01014 -15.52741 40908 ft 473 kts 95°
2026-04-23 02:44 51.00833 -15.42299 40920 ft 472 kts 95°
2026-04-23 02:44 51.00676 -15.33619 40920 ft 472 kts 95°
2026-04-23 02:45 51.00446 -15.21491 40927 ft 473 kts 95°
2026-04-23 02:45 51.00271 -15.12739 40927 ft 473 kts 95°
2026-04-23 02:46 51.00056 -15.02356 40937 ft 474 kts 96°
2026-04-23 02:46 50.99927 -14.91897 40938 ft 475 kts 94°
2026-04-23 02:47 51.00003 -14.81397 40949 ft 475 kts 93°
2026-04-23 02:47 51.00079 -14.70906 40946 ft 475 kts 93°
2026-04-23 02:48 51.00112 -14.60415 40960 ft 475 kts 94°
2026-04-23 02:48 51.00118 -14.49945 40964 ft 474 kts 94°
2026-04-23 02:49 51.00111 -14.39460 40961 ft 474 kts 94°
2026-04-23 02:49 51.00095 -14.29048 40957 ft 474 kts 94°
2026-04-23 02:50 51.00071 -14.18563 40972 ft 475 kts 94°
2026-04-23 02:50 51.00038 -14.08056 40982 ft 476 kts 94°
2026-04-23 02:51 50.99583 -13.97624 40985 ft 470 kts 104°
2026-04-23 02:51 50.98317 -13.87488 40993 ft 469 kts 105°
2026-04-23 02:52 50.96898 -13.77375 40978 ft 469 kts 106°
2026-04-23 02:52 50.95452 -13.67264 41002 ft 470 kts 106°
2026-04-23 02:53 50.94012 -13.57158 41002 ft 470 kts 106°
2026-04-23 02:53 50.92580 -13.47107 41009 ft 470 kts 106°
2026-04-23 02:54 50.91135 -13.37012 41010 ft 470 kts 106°
2026-04-23 02:54 50.89681 -13.26922 40998 ft 470 kts 106°
2026-04-23 02:55 50.88214 -13.16823 41021 ft 470 kts 106°
2026-04-23 02:55 50.86746 -13.06773 41030 ft 470 kts 106°
2026-04-23 02:56 50.85262 -12.96682 41033 ft 470 kts 106°
2026-04-23 02:56 50.83766 -12.86581 41031 ft 470 kts 107°
2026-04-23 02:57 50.82264 -12.76496 41039 ft 470 kts 107°
2026-04-23 02:57 50.80752 -12.66420 41037 ft 471 kts 107°
2026-04-23 02:58 50.79241 -12.56404 41047 ft 471 kts 107°
2026-04-23 02:58 50.77710 -12.46327 41048 ft 471 kts 107°
2026-04-23 02:59 50.76168 -12.36236 41057 ft 471 kts 107°
2026-04-23 02:59 50.74620 -12.26169 41056 ft 471 kts 107°
2026-04-23 03:00 50.73062 -12.16105 41070 ft 472 kts 107°
2026-04-23 03:00 50.71506 -12.06113 41064 ft 472 kts 107°
2026-04-23 03:01 50.69931 -11.96055 41071 ft 472 kts 107°
2026-04-23 03:01 50.68346 -11.86003 41070 ft 472 kts 107°
2026-04-23 03:02 50.66753 -11.75955 41081 ft 472 kts 107°
2026-04-23 03:02 50.65149 -11.65908 41080 ft 473 kts 108°
2026-04-23 03:03 50.63531 -11.55832 41085 ft 474 kts 108°
2026-04-23 03:03 50.61908 -11.45781 41085 ft 474 kts 108°
2026-04-23 03:04 50.60276 -11.35738 41090 ft 474 kts 108°
2026-04-23 03:04 50.58646 -11.25768 41101 ft 473 kts 108°
2026-04-23 03:05 50.56993 -11.15715 41102 ft 475 kts 108°
2026-04-23 03:05 50.55327 -11.05651 41105 ft 475 kts 108°
2026-04-23 03:06 50.53665 -10.95660 41106 ft 475 kts 108°
2026-04-23 03:06 50.51980 -10.85587 41109 ft 475 kts 108°
2026-04-23 03:07 50.50290 -10.75550 41117 ft 475 kts 108°
2026-04-23 03:07 50.48599 -10.65566 41115 ft 476 kts 108°
2026-04-23 03:08 50.46886 -10.55512 41121 ft 477 kts 108°
2026-04-23 03:08 50.45159 -10.45425 41121 ft 477 kts 108°
2026-04-23 03:09 50.43427 -10.35371 41129 ft 477 kts 108°
2026-04-23 03:09 50.41686 -10.25322 41129 ft 477 kts 109°
2026-04-23 03:10 50.39948 -10.15350 41130 ft 478 kts 108°
2026-04-23 03:10 50.38178 -10.05255 41134 ft 479 kts 109°
2026-04-23 03:11 50.36406 -9.95199 41136 ft 479 kts 109°
2026-04-23 03:11 50.34624 -9.85143 41139 ft 479 kts 109°
2026-04-23 03:12 50.32833 -9.75094 41142 ft 479 kts 109°
2026-04-23 03:12 50.31044 -9.65112 41139 ft 479 kts 109°
2026-04-23 03:13 50.29233 -9.55064 41146 ft 479 kts 109°
2026-04-23 03:13 50.27419 -9.45051 41144 ft 479 kts 109°
2026-04-23 03:14 50.25594 -9.35033 41146 ft 478 kts 109°
2026-04-23 03:14 50.23763 -9.25041 41145 ft 478 kts 109°
2026-04-23 03:15 50.21934 -9.15119 41150 ft 479 kts 109°
2026-04-23 03:15 50.20079 -9.05104 41149 ft 480 kts 109°
2026-04-23 03:16 50.18217 -8.95101 41152 ft 480 kts 109°
2026-04-23 03:16 50.15407 -8.80109 41156 ft 480 kts 109°
2026-04-23 03:17 50.13521 -8.70121 41146 ft 480 kts 109°
2026-04-23 03:17 50.11622 -8.60114 41158 ft 481 kts 109°
2026-04-23 03:18 50.09725 -8.50167 41155 ft 482 kts 109°
2026-04-23 03:18 50.07808 -8.40167 41162 ft 481 kts 109°
2026-04-23 03:19 50.05884 -8.30184 41162 ft 481 kts 110°
2026-04-23 03:19 50.03952 -8.20216 41158 ft 481 kts 109°
2026-04-23 03:20 50.02006 -8.10228 41165 ft 483 kts 109°
2026-04-23 03:20 50.00152 -8.00166 41170 ft 485 kts 104°
2026-04-23 03:21 49.98999 -7.89797 41168 ft 486 kts 101°
2026-04-23 03:21 49.98001 -7.79466 41174 ft 487 kts 101°
2026-04-23 03:22 49.97010 -7.69055 41171 ft 487 kts 101°
2026-04-23 03:22 49.95998 -7.58632 41179 ft 488 kts 101°
2026-04-23 03:23 49.94963 -7.48180 41176 ft 488 kts 101°
2026-04-23 03:23 49.93926 -7.37826 41178 ft 488 kts 101°
2026-04-23 03:24 49.92872 -7.27402 41179 ft 488 kts 101°
2026-04-23 03:24 49.91808 -7.16981 41184 ft 490 kts 101°
2026-04-23 03:25 49.90733 -7.06539 41190 ft 490 kts 101°
2026-04-23 03:25 49.89648 -6.96089 41189 ft 490 kts 102°
2026-04-23 03:26 49.88559 -6.85700 41195 ft 490 kts 102°
2026-04-23 03:26 49.87454 -6.75255 41195 ft 492 kts 101°
2026-04-23 03:27 49.86335 -6.64764 41197 ft 493 kts 101°
2026-04-23 03:27 49.85205 -6.54267 41196 ft 493 kts 101°
2026-04-23 03:28 49.84064 -6.43771 41204 ft 493 kts 101°
2026-04-23 03:28 49.82924 -6.33361 41200 ft 494 kts 102°
2026-04-23 03:29 49.81761 -6.22849 41205 ft 496 kts 102°
2026-04-23 03:29 49.80585 -6.12304 41204 ft 496 kts 102°
2026-04-23 03:30 49.79400 -6.01767 41212 ft 497 kts 101°
2026-04-23 03:30 49.78215 -5.91305 41218 ft 496 kts 101°
2026-04-23 03:31 49.77012 -5.80794 41216 ft 497 kts 101°
2026-04-23 03:31 49.75792 -5.70221 41219 ft 500 kts 101°
2026-04-23 03:32 49.74770 -5.61415 41223 ft 501 kts 101°
2026-04-23 03:32 49.73531 -5.50835 41220 ft 499 kts 101°
2026-04-23 03:33 49.72282 -5.40258 41221 ft 499 kts 101°
2026-04-23 03:33 49.71021 -5.29662 41227 ft 502 kts 101°
2026-04-23 03:34 49.69749 -5.19061 41233 ft 502 kts 101°
2026-04-23 03:34 49.68475 -5.08530 41233 ft 501 kts 101°
2026-04-23 03:35 49.67183 -4.97942 41232 ft 501 kts 101°
2026-04-23 03:35 49.65882 -4.87358 41230 ft 503 kts 102°
2026-04-23 03:36 49.64569 -4.76765 41228 ft 501 kts 102°
2026-04-23 03:36 49.63249 -4.66192 41233 ft 500 kts 102°
2026-04-23 03:37 49.61923 -4.55652 41235 ft 501 kts 102°
2026-04-23 03:37 49.60592 -4.45168 41238 ft 502 kts 101°
2026-04-23 03:38 49.59239 -4.34582 41237 ft 502 kts 101°
2026-04-23 03:38 49.57784 -4.24050 41239 ft 502 kts 103°
2026-04-23 03:39 49.56150 -4.13590 41237 ft 503 kts 104°
2026-04-23 03:39 49.54514 -4.03193 41244 ft 501 kts 103°
2026-04-23 03:40 49.52889 -3.92737 41246 ft 501 kts 103°
2026-04-23 03:40 49.51273 -3.82314 41243 ft 501 kts 103°
2026-04-23 03:41 49.49651 -3.71900 41244 ft 500 kts 103°
2026-04-23 03:41 49.48019 -3.61497 41244 ft 499 kts 103°
2026-04-23 03:42 49.46387 -3.51170 41244 ft 500 kts 103°
2026-04-23 03:42 49.44736 -3.40789 41247 ft 500 kts 103°
2026-04-23 03:43 49.43074 -3.30402 41245 ft 499 kts 103°
2026-04-23 03:43 49.41403 -3.20024 41251 ft 500 kts 103°
2026-04-23 03:44 49.39736 -3.09738 41254 ft 500 kts 103°
2026-04-23 03:44 49.38048 -2.99384 41253 ft 499 kts 103°
2026-04-23 03:45 49.36351 -2.89034 41248 ft 500 kts 103°
2026-04-23 03:45 49.34646 -2.78705 41240 ft 500 kts 103°
2026-04-23 03:46 49.32931 -2.68372 41239 ft 499 kts 103°
2026-04-23 03:46 49.31206 -2.58047 41243 ft 500 kts 103°
2026-04-23 03:47 49.29482 -2.47793 41243 ft 500 kts 103°
2026-04-23 03:47 49.27738 -2.37472 41243 ft 500 kts 103°
2026-04-23 03:48 49.25981 -2.27141 41256 ft 501 kts 103°
2026-04-23 03:48 49.24217 -2.16830 41264 ft 500 kts 103°
2026-04-23 03:49 49.22453 -2.06578 41262 ft 500 kts 103°
2026-04-23 03:49 49.20751 -1.96260 41244 ft 500 kts 102°
2026-04-23 03:50 49.19196 -1.85898 41262 ft 500 kts 101°
2026-04-23 03:50 49.17632 -1.75523 41278 ft 500 kts 102°
2026-04-23 03:51 49.16037 -1.65182 41260 ft 499 kts 102°
2026-04-23 03:51 49.14421 -1.54856 41266 ft 499 kts 102°
2026-04-23 03:52 49.12795 -1.44547 41263 ft 499 kts 102°
2026-04-23 03:52 49.11168 -1.34287 41265 ft 499 kts 102°
2026-04-23 03:53 49.09525 -1.23991 41268 ft 500 kts 102°
2026-04-23 03:53 49.07868 -1.13665 41277 ft 500 kts 102°
2026-04-23 03:54 49.06211 -1.03408 41275 ft 501 kts 102°
2026-04-23 03:54 49.04530 -0.93063 41277 ft 502 kts 102°
2026-04-23 03:55 49.02841 -0.82735 41284 ft 502 kts 103°
2026-04-23 03:55 49.01140 -0.72394 41285 ft 502 kts 103°
2026-04-23 03:56 48.99431 -0.62070 41289 ft 503 kts 103°
2026-04-23 03:56 48.97724 -0.51823 41291 ft 503 kts 103°
2026-04-23 03:57 48.95995 -0.41502 41290 ft 502 kts 103°
2026-04-23 03:57 48.94259 -0.31198 41291 ft 502 kts 103°
2026-04-23 03:58 48.92511 -0.20893 41292 ft 503 kts 103°
2026-04-23 03:58 48.90764 -0.10651 41287 ft 503 kts 103°
2026-04-23 03:59 48.89001 -0.00373 41301 ft 503 kts 103°
2026-04-23 03:59 48.87227 0.09908 41290 ft 503 kts 103°
2026-04-23 04:00 48.85441 0.20195 41295 ft 504 kts 103°
2026-04-23 04:00 48.83645 0.30480 41295 ft 504 kts 103°
2026-04-23 04:01 48.81840 0.40758 41289 ft 504 kts 103°
2026-04-23 04:01 48.80039 0.50952 41292 ft 504 kts 103°
2026-04-23 04:02 48.78217 0.61212 41292 ft 504 kts 103°
2026-04-23 04:02 48.76403 0.71481 41296 ft 504 kts 102°
2026-04-23 04:03 48.75022 0.81901 41294 ft 503 kts 98°
2026-04-23 04:03 48.73815 0.92331 41296 ft 502 kts 98°
2026-04-23 04:04 48.72544 1.02735 41296 ft 502 kts 98°
2026-04-23 04:04 48.71219 1.13060 41298 ft 502 kts 99°
2026-04-23 04:05 48.69859 1.23436 41293 ft 502 kts 99°
2026-04-23 04:05 48.68488 1.33819 41297 ft 502 kts 99°
2026-04-23 04:06 48.67116 1.44151 41290 ft 500 kts 99°
2026-04-23 04:06 48.65746 1.54407 41291 ft 500 kts 99°
2026-04-23 04:07 48.64359 1.64725 41286 ft 500 kts 99°
2026-04-23 04:07 48.62960 1.75047 41293 ft 501 kts 99°
2026-04-23 04:08 48.61554 1.85348 41287 ft 500 kts 99°
2026-04-23 04:08 48.60149 1.95573 41291 ft 500 kts 99°
2026-04-23 04:09 48.58724 2.05867 41292 ft 500 kts 99°
2026-04-23 04:09 48.57304 2.16156 41288 ft 499 kts 98°
2026-04-23 04:10 48.56657 2.26528 41289 ft 495 kts 91°
2026-04-23 04:10 48.56334 2.36897 41294 ft 494 kts 90°
2026-04-23 04:11 48.56059 2.47192 41293 ft 494 kts 90°
2026-04-23 04:11 48.55766 2.57564 41288 ft 494 kts 90°
2026-04-23 04:12 48.55452 2.67910 41290 ft 493 kts 90°
2026-04-23 04:12 48.55128 2.78246 41291 ft 492 kts 90°
2026-04-23 04:13 48.55072 2.79999 41290 ft 492 kts 90°